Rbgn^[z[y[W
メイン
   新天体発見情報
     Comet P/2024 X3 (PANSTARRS)
投稿するにはまず登録を

スレッド表示 | 新しいものから 前のトピック | 次のトピック | 下へ
投稿者 スレッド
佐藤裕久
投稿日時: 2024-12-31 16:24
モデレータ
登録日: 2005-6-12
居住地: 日本
投稿: 2661
オンライン
Comet P/2024 X3 (PANSTARRS)

R. Weryk (西オンタリオ大学,物理および天文学科)の通報によると、12月8日、Haleakalaにある
Pan-STARRS2 1.8-m Ritchey-Chretien反射望遠鏡で得た画像から彗星を発見した。
1".3-1".4のシーイングで得た、3枚のスタックした45-秒のw-バンドサーベイ画像は、2".2(半値
全幅:FWHM)の集光したコマが見え、p.a. 290°に5"のまっすぐな尾がある。
Werykは、12月25.5日UT、 1".2-1".4のシーイングで得た4枚の45-秒w-バンドPan-STARRS2サーベイ
画像は、これが明らかに彗星に見え、スタック画像は1".8 (FWHM)の集光したコマと、p.a. 300°
に7"のまっすぐな尾があると付け加えた。
Werykはまた、小惑星センターの"isolated tracklet file"の、10月22.5日(20.6-20.9等)、12月
1.5日(20.6-20.9等)、そして11月14.5日(20.3等)に、Kitt Peakの2.25-m Bok反射望遠鏡、1.5-m 
Mt Lemmon 反射望遠鏡で観測された3つの以前の一夜観測を確認した。
小惑星センターのNEOCPとPCCP webpageに公表後、佐藤英貴氏(東京都文京区)は、12月10.55日UT、
60-秒CCD露出16枚のスタック, 0.43-m f/6.8 アストログラフ, Utah Desert Remote 天文台, Beryl 
Junction 近郊, ユタ州, 米国, 遠隔操作では恒星状にしか見えない。3".8の円形範囲で測定した
光度は20.6等と観測した。

彗星機能の報告は次のとおり、

OC   Date        Reporter            Coma    Tail   PA   Comet     Date
                                                        (T/P)   Reported
F52  2024-12-08  R. Weryk            0".9      6"  290    T   2024-12-08.76
F52  2024-12-25  R. Weryk            0".6      7"  300    T   2024-12-25.73
L06  2024-12-26  P. Sicoli          10"       38"  287    T   2024-12-26.67

発見位置は次のとおり(PCCP P123sw3)、

     2024 UT             R.A. (2000) Decl.       Mag.
     Dec.  8.57146   10 25 18.30   +11 09 06.4   21.0
           8.58428   10 25 18.85   +11 09 04.3   20.7
           8.59706   10 25 19.39   +11 09 02.1   21.5

MPCの楕円軌道要素、位置推算表は次のとおり、

Orbital elements:
    P/2024 X3 (PANSTARRS)                                                       
Epoch 2024 Oct. 17.0 TT = JDT 2460600.5                                         
T 2024 Sept. 5.78862 TT                                 Veres                   
q   2.6132454            (2000.0)            P               Q                  
n   0.05382068     Peri.  352.94700     -0.28089060     -0.95855854             
a   6.9476286      Node   113.35731     +0.88305721     -0.27755671             
e   0.6238651      Incl.    2.97222     +0.37591279     -0.06424796             
P  18.3                                                                         
From 39 observations 2024 Oct. 22-Dec. 26, mean residual 0".5.                  
                                                                                
Ephemeris:
Date    TT    R. A. (2000) Decl.     Delta      r    Elong.  Phase   m1
2024 11 27    10 15 41.2 +11 48 17   2.4590  2.7022    93.3    21.4  20.9
...
2024 12 12    10 27 38.5 +11 00 29   2.3033  2.7364   105.5    20.3  20.8
...
2024 12 20    10 32 07.7 +10 46 07   2.2255  2.7567   112.5    19.2  20.7
...
2024 12 26    10 34 33.5 +10 41 00   2.1708  2.7728   118.1    18.2  20.7
2024 12 27    10 34 53.0 +10 40 38   2.1620  2.7755   119.0    18.1  20.7
2024 12 28    10 35 11.0 +10 40 25   2.1534  2.7783   120.0    17.9  20.7
...
2025 01 03    10 36 29.6 +10 42 06   2.1042  2.7953   125.8    16.6  20.7
...
2025 01 11    10 36 55.5 +10 52 12   2.0470  2.8192   133.9    14.6  20.7
...
2025 01 26    10 33 55.1 +11 32 48   1.9716  2.8671   150.0     9.9  20.6

(MPEC 2024-Y145、CBET 5485)

スレッド表示 | 新しいものから 前のトピック | 次のトピック | トップ

投稿するにはまず登録を
 
© 1999 Tsutomu Seki.